Location: Ernez
(36.4595°N, 29.8755°E)
Time: 09:06:01
(UTC+00:00)

COSMO-SKYMED 1 - Pass Details

Date: 13 November 2025
Orbit: 579 x 581 km, 97.9° (Epoch: 05 December)

Event Time Altitude Azimuth Distance (km) Brightness Sun altitude
Exits shadow 15:22:24 - 31° (NNE) 2,777 5.5 -6.3°
Reaches altitude 10° 15:25:02 10° 49° (NE) 1,897 4.5 -6.8°
Maximum altitude 15:27:57 19° 95° (E) 1,415 3.9 -7.4°
Drops below altitude 10° 15:30:52 10° 140° (SE) 1,887 4.8 -8.0°
Sets 15:33:32 0° 159° (SSE) 2,781 5.9 -8.5°
